ワイズ彗星

C/2010 D4 ( WISE )

English version
Home page
Updated on September 3, 2011

---------------------------------------------------------------------

・ プロフィール

発見日 2010年2月28日
発見光度
発見者 Wide Field Infrared Survey Explorer (NASA)

・ 写真集

・ 軌道要素

Epoch 2009 Mar. 30.0 TT = JDT 2454920.5
T 2009 Mar. 30.45716 TT                                 MPC
q   7.1479027            (2000.0)            P               Q
z  +0.0155588      Peri.   44.45314     -0.22887529     -0.15277440
 +/-0.0000000      Node   266.76768     -0.91235009     +0.37806063
e   0.8887871      Incl.  105.65060     +0.33946047     +0.91308824
From 100 observations 2008 June 6-2011 Aug. 19, mean residual 0".5.

・ 光度変化

        m1 = 6.7 + 5 logΔ + 10.0 log r

---------------------------------------------------------------------

軌道要素はM.P.E.C. 2011-R11に掲載されたものです。
光度グラフはComet for Windowsで作成したものです。

---------------------------------------------------------------------

Copyright(C) Seiichi Yoshida (comet@aerith.net). All rights reserved.